Check out our new BloomSky Weather System.

Active alerts


No alerts


Thunder radar  blitzortung!


Rain radar more information rain snow radar


Visit our other weather sites:

Template documentation
and downloads

And another site



Weather Underground History page Text

Daily Summary for February 11, 2017 Units:  Metric    English   Both
« Previous Day
Next Day »
Daily Weekly Monthly Yearly Custom
  High: Low: Average:
Temperature: 29.7 °C 21.5 °C 24.2 °C
Dew Point: 21.9 °C 19.7 °C 20.8 °C
Humidity: 94 % 60 % 82 %
Wind Speed: 32.2 km/h 0 km/h 9.2 km/h
Wind Gust: 35.4 km/h - -
Wind:- - South
Pressure: 1018.5 hPa 1014.8 hPa -
Precipitation: 0 mm    
Historical Graphs
 
 
Tabular Data for February 11, 2017
Time Temperature Dew Point Pressure Wind Wind Speed Wind Gust Humidity Rainfall Rate (Hourly)
00:03 21.7 °C 20.5 °C 1017.5 hPa SSE 9.7 km/h 14.5 km/h 93 % 0 mm
00:08 21.7 °C 20.5 °C 1017.5 hPa SSE 11.3 km/h 17.7 km/h 93 % 0 mm
00:13 21.8 °C 20.6 °C 1017.5 hPa ESE 6.4 km/h 17.7 km/h 93 % 0 mm
00:18 21.8 °C 20.6 °C 1017.2 hPa SSE 8 km/h 17.7 km/h 93 % 0 mm
00:23 21.8 °C 20.6 °C 1017.2 hPa South 3.2 km/h 17.7 km/h 93 % 0 mm
00:28 21.8 °C 20.6 °C 1017.2 hPa South 14.5 km/h 16.1 km/h 93 % 0 mm
00:33 21.8 °C 20.6 °C 1017.5 hPa SSE 8 km/h 16.1 km/h 93 % 0 mm
00:38 21.8 °C 20.6 °C 1017.5 hPa SW 17.7 km/h 17.7 km/h 93 % 0 mm
00:43 21.8 °C 20.4 °C 1017.5 hPa South 11.3 km/h 22.5 km/h 92 % 0 mm
00:48 21.7 °C 20.3 °C 1017.5 hPa SE 9.7 km/h 22.5 km/h 92 % 0 mm
00:53 21.8 °C 20.4 °C 1017.5 hPa South 12.9 km/h 22.5 km/h 92 % 0 mm
00:58 21.8 °C 20.4 °C 1017.2 hPa SSE 9.7 km/h 20.9 km/h 92 % 0 mm
01:03 21.8 °C 20.4 °C 1017.5 hPa South 4.8 km/h 20.9 km/h 92 % 0 mm
01:08 21.8 °C 20.4 °C 1017.5 hPa South 4.8 km/h 20.9 km/h 92 % 0 mm
01:13 21.8 °C 20.4 °C 1017.5 hPa SSE 6.4 km/h 19.3 km/h 92 % 0 mm
01:18 21.9 °C 20.5 °C 1017.2 hPa South 12.9 km/h 17.7 km/h 92 % 0 mm
01:23 21.8 °C 20.4 °C 1017.2 hPa SSE 6.4 km/h 17.7 km/h 92 % 0 mm
01:28 21.8 °C 20.4 °C 1017.2 hPa SSW 9.7 km/h 17.7 km/h 92 % 0 mm
01:33 21.8 °C 20.4 °C 1017.2 hPa South 6.4 km/h 17.7 km/h 92 % 0 mm
01:38 21.8 °C 20.4 °C 1017.2 hPa South 4.8 km/h 16.1 km/h 92 % 0 mm
01:43 21.8 °C 20.4 °C 1017.2 hPa SSE 4.8 km/h 12.9 km/h 92 % 0 mm
01:48 21.8 °C 20.4 °C 1017.2 hPa SE 4.8 km/h 12.9 km/h 92 % 0 mm
01:53 21.8 °C 20.4 °C 1017.2 hPa SSE 8 km/h 14.5 km/h 92 % 0 mm
01:58 21.7 °C 20.3 °C 1017.2 hPa SSE 11.3 km/h 14.5 km/h 92 % 0 mm
02:03 21.7 °C 20.3 °C 1016.8 hPa SSE 6.4 km/h 14.5 km/h 92 % 0 mm
02:08 21.7 °C 20.3 °C 1016.8 hPa SSW 8 km/h 14.5 km/h 92 % 0 mm
02:13 21.7 °C 20.3 °C 1016.8 hPa SSE 4.8 km/h 16.1 km/h 92 % 0 mm
02:18 21.7 °C 20.3 °C 1016.8 hPa South 8 km/h 16.1 km/h 92 % 0 mm
02:23 21.6 °C 20.2 °C 1016.8 hPa South 8 km/h 16.1 km/h 92 % 0 mm
02:28 21.6 °C 20.4 °C 1016.8 hPa SSE 4.8 km/h 14.5 km/h 93 % 0 mm
02:33 21.6 °C 20.4 °C 1016.8 hPa South 4.8 km/h 14.5 km/h 93 % 0 mm
02:38 21.6 °C 20.4 °C 1016.8 hPa South 4.8 km/h 14.5 km/h 93 % 0 mm
02:43 21.6 °C 20.4 °C 1016.8 hPa SSE 3.2 km/h 12.9 km/h 93 % 0 mm
02:48 21.6 °C 20.4 °C 1016.8 hPa SE 1.6 km/h 9.7 km/h 93 % 0 mm
02:53 21.6 °C 20.4 °C 1016.8 hPa SSW 6.4 km/h 12.9 km/h 93 % 0 mm
02:58 21.6 °C 20.4 °C 1016.8 hPa WSW 8 km/h 12.9 km/h 93 % 0 mm
03:03 21.6 °C 20.4 °C 1016.8 hPa SSW 6.4 km/h 12.9 km/h 93 % 0 mm
03:09 21.6 °C 20.4 °C 1017.2 hPa SSW 3.2 km/h 14.5 km/h 93 % 0 mm
03:14 21.6 °C 20.4 °C 1017.2 hPa SSW 3.2 km/h 14.5 km/h 93 % 0 mm
03:19 21.6 °C 20.4 °C 1017.2 hPa South 8 km/h 14.5 km/h 93 % 0 mm
03:24 21.6 °C 20.4 °C 1017.2 hPa SSW 3.2 km/h 11.3 km/h 93 % 0 mm
03:29 21.6 °C 20.2 °C 1017.2 hPa SSE 4.8 km/h 11.3 km/h 92 % 0 mm
03:34 21.7 °C 20.3 °C 1017.2 hPa SSW 9.7 km/h 14.5 km/h 92 % 0 mm
03:39 21.7 °C 20.3 °C 1016.8 hPa SSE 3.2 km/h 14.5 km/h 92 % 0 mm
03:44 21.7 °C 20.3 °C 1016.8 hPa SE 11.3 km/h 14.5 km/h 92 % 0 mm
03:49 21.8 °C 20.4 °C 1017.2 hPa South 4.8 km/h 14.5 km/h 92 % 0 mm
03:54 21.8 °C 20.4 °C 1016.8 hPa SSW 4.8 km/h 14.5 km/h 92 % 0 mm
03:59 21.8 °C 20.4 °C 1016.8 hPa South 4.8 km/h 14.5 km/h 92 % 0 mm
04:04 21.8 °C 20.4 °C 1016.8 hPa WSW 4.8 km/h 16.1 km/h 92 % 0 mm
04:09 21.8 °C 20.4 °C 1016.8 hPa SSW 4.8 km/h 16.1 km/h 92 % 0 mm
04:14 21.7 °C 20.3 °C 1016.8 hPa SSE 6.4 km/h 16.1 km/h 92 % 0 mm
04:19 21.8 °C 20.4 °C 1016.8 hPa SW 6.4 km/h 11.3 km/h 92 % 0 mm
04:24 21.8 °C 20.4 °C 1016.8 hPa South 6.4 km/h 11.3 km/h 92 % 0 mm
04:29 21.7 °C 20.3 °C 1016.8 hPa Calm   11.3 km/h 92 % 0 mm
04:34 21.7 °C 20.3 °C 1016.8 hPa SSE 6.4 km/h 11.3 km/h 92 % 0 mm
04:39 21.7 °C 20.5 °C 1016.8 hPa South 3.2 km/h 12.9 km/h 93 % 0 mm
04:44 21.7 °C 20.5 °C 1016.8 hPa South 9.7 km/h 12.9 km/h 93 % 0 mm
04:49 21.7 °C 20.3 °C 1016.8 hPa SSW 3.2 km/h 12.9 km/h 92 % 0 mm
04:54 21.7 °C 20.5 °C 1017.2 hPa South 4.8 km/h 11.3 km/h 93 % 0 mm
04:59 21.7 °C 20.5 °C 1017.2 hPa SE 4.8 km/h 12.9 km/h 93 % 0 mm
05:04 21.7 °C 20.5 °C 1017.2 hPa SSE 4.8 km/h 12.9 km/h 93 % 0 mm
05:09 21.8 °C 20.6 °C 1016.8 hPa SW 3.2 km/h 14.5 km/h 93 % 0 mm
05:14 21.7 °C 20.5 °C 1017.2 hPa SSE 3.2 km/h 14.5 km/h 93 % 0 mm
05:19 21.7 °C 20.5 °C 1017.2 hPa SSE 3.2 km/h 14.5 km/h 93 % 0 mm
05:24 21.7 °C 20.5 °C 1017.2 hPa SSE 1.6 km/h 9.7 km/h 93 % 0 mm
05:29 21.7 °C 20.5 °C 1017.2 hPa South 3.2 km/h 8 km/h 93 % 0 mm
05:34 21.7 °C 20.5 °C 1017.2 hPa South 3.2 km/h 6.4 km/h 93 % 0 mm
05:39 21.7 °C 20.5 °C 1016.8 hPa SSW 4.8 km/h 6.4 km/h 93 % 0 mm
05:44 21.7 °C 20.5 °C 1016.8 hPa South 6.4 km/h 9.7 km/h 93 % 0 mm
05:49 21.8 °C 20.6 °C 1017.2 hPa South 6.4 km/h 9.7 km/h 93 % 0 mm
05:54 21.8 °C 20.6 °C 1017.2 hPa SSE 8 km/h 9.7 km/h 93 % 0 mm
05:59 21.8 °C 20.6 °C 1017.2 hPa SSW 3.2 km/h 12.9 km/h 93 % 0 mm
06:04 21.8 °C 20.6 °C 1017.2 hPa South 6.4 km/h 14.5 km/h 93 % 0 mm
06:09 21.8 °C 20.6 °C 1017.2 hPa South 8 km/h 14.5 km/h 93 % 0 mm
06:14 21.8 °C 20.6 °C 1017.2 hPa SSE 8 km/h 14.5 km/h 93 % 0 mm
06:19 21.9 °C 20.7 °C 1017.2 hPa SE 6.4 km/h 12.9 km/h 93 % 0 mm
06:24 21.9 °C 20.7 °C 1017.2 hPa SSW 3.2 km/h 12.9 km/h 93 % 0 mm
06:29 21.9 °C 20.7 °C 1017.2 hPa SSE 3.2 km/h 12.9 km/h 93 % 0 mm
06:34 21.9 °C 20.9 °C 1017.5 hPa SSE 3.2 km/h 11.3 km/h 94 % 0 mm
06:39 21.9 °C 20.9 °C 1017.5 hPa South 1.6 km/h 8 km/h 94 % 0 mm
06:44 21.9 °C 20.9 °C 1017.5 hPa SSE 9.7 km/h 9.7 km/h 94 % 0 mm
06:49 21.9 °C 20.7 °C 1017.5 hPa South 3.2 km/h 14.5 km/h 93 % 0 mm
06:54 21.9 °C 20.7 °C 1017.5 hPa SSW 8 km/h 14.5 km/h 93 % 0 mm
06:59 22 °C 21 °C 1017.5 hPa SSW 6.4 km/h 14.5 km/h 94 % 0 mm
07:04 22 °C 20.8 °C 1017.5 hPa SW 4.8 km/h 17.7 km/h 93 % 0 mm
07:10 22.1 °C 20.9 °C 1017.5 hPa SW 8 km/h 17.7 km/h 93 % 0 mm
07:15 22 °C 20.8 °C 1017.5 hPa SSW 8 km/h 17.7 km/h 93 % 0 mm
07:20 22 °C 20.8 °C 1017.5 hPa SSW 4.8 km/h 17.7 km/h 93 % 0 mm
07:25 22 °C 20.8 °C 1017.8 hPa SW 8 km/h 17.7 km/h 93 % 0 mm
07:30 22 °C 20.8 °C 1017.8 hPa South 6.4 km/h 12.9 km/h 93 % 0 mm
07:35 22.1 °C 20.9 °C 1017.8 hPa South 4.8 km/h 12.9 km/h 93 % 0 mm
07:40 22.1 °C 20.9 °C 1017.8 hPa SSW 4.8 km/h 11.3 km/h 93 % 0 mm
07:45 22.1 °C 20.9 °C 1017.8 hPa SSE 4.8 km/h 9.7 km/h 93 % 0 mm
07:50 22.2 °C 21 °C 1017.8 hPa SSE 3.2 km/h 11.3 km/h 93 % 0 mm
07:55 22.2 °C 21 °C 1017.8 hPa South 9.7 km/h 12.9 km/h 93 % 0 mm
08:00 22.3 °C 21.1 °C 1017.8 hPa SW 9.7 km/h 12.9 km/h 93 % 0 mm
08:05 22.3 °C 21.1 °C 1017.8 hPa SW 3.2 km/h 14.5 km/h 93 % 0 mm
08:10 22.4 °C 21 °C 1017.8 hPa South 17.7 km/h 20.9 km/h 92 % 0 mm
08:15 22.4 °C 21 °C 1018.2 hPa SSW 4.8 km/h 20.9 km/h 92 % 0 mm
08:20 22.5 °C 21.1 °C 1017.8 hPa South 4.8 km/h 20.9 km/h 92 % 0 mm
08:25 22.5 °C 21.1 °C 1017.8 hPa SE 8 km/h 17.7 km/h 92 % 0 mm
08:30 22.6 °C 21.2 °C 1017.8 hPa SSE 4.8 km/h 12.9 km/h 92 % 0 mm
08:35 22.6 °C 21.2 °C 1018.2 hPa SSE 9.7 km/h 16.1 km/h 92 % 0 mm
08:40 22.7 °C 21.2 °C 1018.2 hPa WSW 12.9 km/h 16.1 km/h 91 % 0 mm
08:45 22.8 °C 21.3 °C 1018.2 hPa SSW 8 km/h 16.1 km/h 91 % 0 mm
08:50 22.8 °C 21.3 °C 1018.2 hPa SSW 16.1 km/h 16.1 km/h 91 % 0 mm
08:56 22.9 °C 21.2 °C 1018.2 hPa South 6.4 km/h 17.7 km/h 90 % 0 mm
09:01 23.1 °C 21.4 °C 1018.2 hPa SSW 11.3 km/h 19.3 km/h 90 % 0 mm
09:06 23.2 °C 21.5 °C 1018.2 hPa SW 8 km/h 19.3 km/h 90 % 0 mm
09:11 23.3 °C 21.4 °C 1018.2 hPa SSW 8 km/h 20.9 km/h 89 % 0 mm
09:16 23.3 °C 21.2 °C 1018.2 hPa South 11.3 km/h 20.9 km/h 88 % 0 mm
09:21 23.4 °C 21.3 °C 1018.2 hPa South 11.3 km/h 27.4 km/h 88 % 0 mm
09:26 23.6 °C 21.5 °C 1018.2 hPa South 8 km/h 27.4 km/h 88 % 0 mm
09:31 23.6 °C 21.3 °C 1018.2 hPa SSE 6.4 km/h 27.4 km/h 87 % 0 mm
09:36 23.7 °C 21.4 °C 1018.2 hPa SSW 16.1 km/h 24.1 km/h 87 % 0 mm
09:41 23.8 °C 21.3 °C 1018.2 hPa SW 12.9 km/h 27.4 km/h 86 % 0 mm
09:46 23.8 °C 21.1 °C 1018.5 hPa South 8 km/h 27.4 km/h 85 % 0 mm
09:51 23.9 °C 21.2 °C 1018.5 hPa South 9.7 km/h 27.4 km/h 85 % 0 mm
09:56 24 °C 21.1 °C 1018.5 hPa SE 11.3 km/h 22.5 km/h 84 % 0 mm
10:01 24.1 °C 21.4 °C 1018.5 hPa SSW 6.4 km/h 22.5 km/h 85 % 0 mm
10:06 24.3 °C 21.4 °C 1018.5 hPa SSW 6.4 km/h 22.5 km/h 84 % 0 mm
10:11 24.4 °C 21.5 °C 1018.5 hPa South 12.9 km/h 17.7 km/h 84 % 0 mm
10:16 24.7 °C 21.6 °C 1018.5 hPa SSW 9.7 km/h 17.7 km/h 83 % 0 mm
10:21 24.9 °C 21.8 °C 1018.5 hPa South 20.9 km/h 20.9 km/h 83 % 0 mm
10:26 24.9 °C 21.4 °C 1018.5 hPa SSW 9.7 km/h 32.2 km/h 81 % 0 mm
10:31 25.1 °C 21.6 °C 1018.5 hPa South 8 km/h 32.2 km/h 81 % 0 mm
10:36 25.2 °C 21.7 °C 1018.5 hPa SSW 17.7 km/h 32.2 km/h 81 % 0 mm
10:41 25.4 °C 21.7 °C 1018.5 hPa SE 8 km/h 25.7 km/h 80 % 0 mm
10:46 25.4 °C 21.5 °C 1018.5 hPa SSE 17.7 km/h 25.7 km/h 79 % 0 mm
10:51 25.4 °C 21.3 °C 1018.5 hPa South 14.5 km/h 24.1 km/h 78 % 0 mm
10:56 25.7 °C 21.6 °C 1018.5 hPa SSE 6.4 km/h 24.1 km/h 78 % 0 mm
11:01 26.1 °C 21.7 °C 1018.2 hPa South 17.7 km/h 24.1 km/h 77 % 0 mm
11:06 26.5 °C 21.9 °C 1018.2 hPa South 8 km/h 19.3 km/h 76 % 0 mm
11:11 26.7 °C 21.2 °C 1018.2 hPa SE 14.5 km/h 19.3 km/h 72 % 0 mm
11:16 26.3 °C 21.3 °C 1018.2 hPa South 20.9 km/h 29 km/h 74 % 0 mm
11:21 26.6 °C 21.8 °C 1018.2 hPa SE 11.3 km/h 29 km/h 75 % 0 mm
11:26 26.8 °C 21.8 °C 1018.2 hPa SSW 14.5 km/h 29 km/h 74 % 0 mm
11:31 26.8 °C 21.6 °C 1018.2 hPa SSW 16.1 km/h 24.1 km/h 73 % 0 mm
11:36 27 °C 21.5 °C 1018.2 hPa South 6.4 km/h 30.6 km/h 72 % 0 mm
11:42 27.2 °C 21.5 °C 1017.8 hPa SW 19.3 km/h 30.6 km/h 71 % 0 mm
11:47 27.5 °C 21.8 °C 1017.8 hPa SSE 6.4 km/h 30.6 km/h 71 % 0 mm
11:52 27.7 °C 21.3 °C 1017.8 hPa SSE 12.9 km/h 30.6 km/h 68 % 0 mm
11:57 27.7 °C 21.5 °C 1017.8 hPa SSW 22.5 km/h 27.4 km/h 69 % 0 mm
12:02 27.7 °C 21.5 °C 1017.5 hPa SE 16.1 km/h 35.4 km/h 69 % 0 mm
12:07 27.8 °C 21.6 °C 1017.5 hPa South 9.7 km/h 35.4 km/h 69 % 0 mm
12:12 27.8 °C 21.8 °C 1017.5 hPa SSW 8 km/h 35.4 km/h 70 % 0 mm
12:17 27.9 °C 21.2 °C 1017.2 hPa SSE 22.5 km/h 27.4 km/h 67 % 0 mm
12:22 27.7 °C 21.3 °C 1017.2 hPa SSW 12.9 km/h 27.4 km/h 68 % 0 mm
12:27 27.9 °C 21.4 °C 1017.2 hPa SSW 11.3 km/h 27.4 km/h 68 % 0 mm
12:32 28.4 °C 21.7 °C 1017.2 hPa SSE 16.1 km/h 25.7 km/h 67 % 0 mm
12:37 28.3 °C 21.6 °C 1016.8 hPa SE 14.5 km/h 25.7 km/h 67 % 0 mm
12:42 28.4 °C 21.4 °C 1016.8 hPa South 16.1 km/h 25.7 km/h 66 % 0 mm
12:47 28.4 °C 21.7 °C 1016.5 hPa South 16.1 km/h 27.4 km/h 67 % 0 mm
12:52 28.3 °C 21.3 °C 1016.5 hPa SE 12.9 km/h 27.4 km/h 66 % 0 mm
12:57 28.3 °C 21.6 °C 1016.5 hPa SSW 17.7 km/h 27.4 km/h 67 % 0 mm
13:02 28.4 °C 21.2 °C 1016.1 hPa South 16.1 km/h 25.7 km/h 65 % 0 mm
13:07 28.2 °C 21 °C 1016.5 hPa SSW 30.6 km/h 30.6 km/h 65 % 0 mm
13:12 28.3 °C 21.3 °C 1016.1 hPa South 11.3 km/h 30.6 km/h 66 % 0 mm
13:17 28.2 °C 21.2 °C 1016.1 hPa South 9.7 km/h 30.6 km/h 66 % 0 mm
13:22 28.6 °C 21.6 °C 1016.1 hPa SE 8 km/h 30.6 km/h 66 % 0 mm
13:27 28.6 °C 20.9 °C 1016.1 hPa SSW 8 km/h 29 km/h 63 % 0 mm
13:32 28.4 °C 21.2 °C 1016.1 hPa South 9.7 km/h 27.4 km/h 65 % 0 mm
13:37 28.5 °C 21.3 °C 1015.8 hPa SSE 6.4 km/h 27.4 km/h 65 % 0 mm
13:42 28.7 °C 21.5 °C 1015.8 hPa SSE 8 km/h 27.4 km/h 65 % 0 mm
13:47 28.8 °C 20.8 °C 1015.8 hPa SSE 17.7 km/h 32.2 km/h 62 % 0 mm
13:52 28.9 °C 21.1 °C 1015.5 hPa South 14.5 km/h 32.2 km/h 63 % 0 mm
13:57 29 °C 21.5 °C 1015.5 hPa SE 19.3 km/h 32.2 km/h 64 % 0 mm
14:02 28.9 °C 21.4 °C 1015.5 hPa SSE 9.7 km/h 30.6 km/h 64 % 0 mm
14:07 28.9 °C 21.1 °C 1015.5 hPa SSE 32.2 km/h 32.2 km/h 63 % 0 mm
14:12 29 °C 21.2 °C 1015.5 hPa SSW 16.1 km/h 33.8 km/h 63 % 0 mm
14:17 29.3 °C 21.5 °C 1015.5 hPa SW 11.3 km/h 33.8 km/h 63 % 0 mm
14:22 29.4 °C 21.1 °C 1015.5 hPa South 11.3 km/h 33.8 km/h 61 % 0 mm
14:27 29.7 °C 21.1 °C 1015.5 hPa South 14.5 km/h 30.6 km/h 60 % 0 mm
14:32 29.5 °C 21.2 °C 1015.5 hPa SE 16.1 km/h 29 km/h 61 % 0 mm
14:37 29.6 °C 21.5 °C 1015.1 hPa SW 22.5 km/h 29 km/h 62 % 0 mm
14:42 29.4 °C 21.6 °C 1015.1 hPa SSW 12.9 km/h 29 km/h 63 % 0 mm
14:47 29.3 °C 21.3 °C 1015.1 hPa SSW 14.5 km/h 25.7 km/h 62 % 0 mm
14:52 29.2 °C 21.4 °C 1015.1 hPa SSW 14.5 km/h 30.6 km/h 63 % 0 mm
14:57 29.1 °C 21.3 °C 1015.1 hPa SW 20.9 km/h 30.6 km/h 63 % 0 mm
15:02 29.1 °C 21.3 °C 1015.1 hPa South 14.5 km/h 30.6 km/h 63 % 0 mm
15:07 28.8 °C 21.3 °C 1015.1 hPa SSE 11.3 km/h 29 km/h 64 % 0 mm
15:12 28.6 °C 21.1 °C 1015.1 hPa South 12.9 km/h 29 km/h 64 % 0 mm
15:17 28.8 °C 21.3 °C 1015.1 hPa South 11.3 km/h 29 km/h 64 % 0 mm
15:22 28.9 °C 21.1 °C 1014.8 hPa South 12.9 km/h 30.6 km/h 63 % 0 mm
15:27 28.8 °C 21.1 °C 1014.8 hPa South 16.1 km/h 30.6 km/h 63 % 0 mm
15:32 28.6 °C 21.1 °C 1015.1 hPa SSW 9.7 km/h 30.6 km/h 64 % 0 mm
15:37 28.6 °C 21.1 °C 1015.1 hPa South 14.5 km/h 25.7 km/h 64 % 0 mm
15:42 28.6 °C 21.1 °C 1015.1 hPa SW 8 km/h 25.7 km/h 64 % 0 mm
15:47 28.4 °C 20.9 °C 1015.1 hPa SSE 14.5 km/h 27.4 km/h 64 % 0 mm
15:52 28.2 °C 21 °C 1015.1 hPa SW 12.9 km/h 27.4 km/h 65 % 0 mm
15:57 27.9 °C 20.7 °C 1015.1 hPa SSW 20.9 km/h 29 km/h 65 % 0 mm
16:02 27.8 °C 20.9 °C 1014.8 hPa SSW 9.7 km/h 29 km/h 66 % 0 mm
16:07 27.9 °C 21 °C 1014.8 hPa SSW 8 km/h 29 km/h 66 % 0 mm
16:12 28.1 °C 20.9 °C 1014.8 hPa SSE 19.3 km/h 27.4 km/h 65 % 0 mm
16:17 28.1 °C 20.9 °C 1014.8 hPa SSE 6.4 km/h 25.7 km/h 65 % 0 mm
16:22 28.1 °C 20.9 °C 1014.8 hPa SSE 9.7 km/h 25.7 km/h 65 % 0 mm
16:27 28.2 °C 21 °C 1014.8 hPa WSW 8 km/h 25.7 km/h 65 % 0 mm
16:32 28.2 °C 20.7 °C 1014.8 hPa SSE 24.1 km/h 24.1 km/h 64 % 0 mm
16:37 28.1 °C 20.6 °C 1014.8 hPa SSW 8 km/h 25.7 km/h 64 % 0 mm
16:42 28.1 °C 21.1 °C 1014.8 hPa SE 4.8 km/h 25.7 km/h 66 % 0 mm
16:47 28 °C 20.8 °C 1014.8 hPa SSE 17.7 km/h 27.4 km/h 65 % 0 mm
16:52 27.9 °C 21 °C 1015.1 hPa SSW 14.5 km/h 27.4 km/h 66 % 0 mm
16:57 27.7 °C 21 °C 1014.8 hPa SSE 9.7 km/h 29 km/h 67 % 0 mm
17:02 27.4 °C 20.7 °C 1014.8 hPa SSW 17.7 km/h 35.4 km/h 67 % 0 mm
17:07 27.3 °C 20.9 °C 1014.8 hPa SSW 8 km/h 35.4 km/h 68 % 0 mm
17:12 27.3 °C 20.6 °C 1014.8 hPa SE 6.4 km/h 35.4 km/h 67 % 0 mm
17:17 27.2 °C 20.5 °C 1015.1 hPa SSW 11.3 km/h 27.4 km/h 67 % 0 mm
17:23 27.1 °C 20.7 °C 1015.1 hPa SE 14.5 km/h 24.1 km/h 68 % 0 mm
17:28 26.9 °C 20.5 °C 1015.1 hPa SE 12.9 km/h 24.1 km/h 68 % 0 mm
17:33 26.7 °C 20.3 °C 1015.1 hPa South 11.3 km/h 29 km/h 68 % 0 mm
17:38 26.6 °C 20.4 °C 1015.1 hPa South 12.9 km/h 29 km/h 69 % 0 mm
17:43 26.4 °C 20.3 °C 1015.1 hPa South 9.7 km/h 29 km/h 69 % 0 mm
17:48 26.2 °C 20.3 °C 1015.1 hPa South 11.3 km/h 29 km/h 70 % 0 mm
17:53 26 °C 20.3 °C 1015.1 hPa SW 8 km/h 29 km/h 71 % 0 mm
17:58 25.8 °C 20.1 °C 1015.5 hPa South 9.7 km/h 29 km/h 71 % 0 mm
18:03 25.7 °C 20.3 °C 1015.5 hPa SSW 19.3 km/h 24.1 km/h 72 % 0 mm
18:08 25.6 °C 20.2 °C 1015.5 hPa SSE 6.4 km/h 24.1 km/h 72 % 0 mm
18:13 25.4 °C 20 °C 1015.5 hPa South 12.9 km/h 24.1 km/h 72 % 0 mm
18:18 25.3 °C 19.7 °C 1015.5 hPa South 9.7 km/h 27.4 km/h 71 % 0 mm
18:23 25.2 °C 19.8 °C 1015.5 hPa SSE 3.2 km/h 30.6 km/h 72 % 0 mm
18:28 25 °C 19.8 °C 1015.5 hPa SSE 11.3 km/h 30.6 km/h 73 % 0 mm
18:33 24.9 °C 19.7 °C 1015.5 hPa SE 16.1 km/h 30.6 km/h 73 % 0 mm
18:38 24.8 °C 19.8 °C 1015.5 hPa SSE 6.4 km/h 19.3 km/h 74 % 0 mm
18:43 24.7 °C 19.8 °C 1015.5 hPa SSE 4.8 km/h 19.3 km/h 74 % 0 mm
18:48 24.6 °C 19.9 °C 1015.5 hPa SSW 6.4 km/h 19.3 km/h 75 % 0 mm
18:53 24.4 °C 19.9 °C 1015.5 hPa SE 6.4 km/h 17.7 km/h 76 % 0 mm
18:58 24.2 °C 19.9 °C 1015.8 hPa South 4.8 km/h 14.5 km/h 77 % 0 mm
19:03 24.2 °C 20.1 °C 1015.8 hPa South 4.8 km/h 19.3 km/h 78 % 0 mm
19:08 24.2 °C 20.3 °C 1015.8 hPa SW 6.4 km/h 19.3 km/h 79 % 0 mm
19:13 24.1 °C 20.2 °C 1015.8 hPa SSE 9.7 km/h 19.3 km/h 79 % 0 mm
19:18 24.1 °C 20.2 °C 1015.8 hPa South 8 km/h 16.1 km/h 79 % 0 mm
19:23 24 °C 20.3 °C 1015.8 hPa SSW 12.9 km/h 17.7 km/h 80 % 0 mm
19:28 23.9 °C 20.2 °C 1015.8 hPa SSE 6.4 km/h 17.7 km/h 80 % 0 mm
19:33 23.9 °C 20.4 °C 1015.8 hPa SE 8 km/h 17.7 km/h 81 % 0 mm
19:38 23.8 °C 20.3 °C 1016.1 hPa SSE 3.2 km/h 14.5 km/h 81 % 0 mm
19:43 23.8 °C 20.5 °C 1016.1 hPa South 9.7 km/h 14.5 km/h 82 % 0 mm
19:48 23.8 °C 20.5 °C 1016.1 hPa East 11.3 km/h 12.9 km/h 82 % 0 mm
19:53 23.8 °C 20.5 °C 1016.1 hPa SSE 4.8 km/h 16.1 km/h 82 % 0 mm
19:58 23.7 °C 20.4 °C 1016.1 hPa SSE 3.2 km/h 16.1 km/h 82 % 0 mm
20:03 23.7 °C 20.6 °C 1016.1 hPa ESE 8 km/h 16.1 km/h 83 % 0 mm
20:08 23.6 °C 20.5 °C 1016.5 hPa SSW 8 km/h 16.1 km/h 83 % 0 mm
20:13 23.7 °C 20.6 °C 1016.5 hPa SSE 3.2 km/h 16.1 km/h 83 % 0 mm
20:18 23.7 °C 20.6 °C 1016.5 hPa SSE 11.3 km/h 16.1 km/h 83 % 0 mm
20:23 23.7 °C 20.8 °C 1016.5 hPa SSE 4.8 km/h 12.9 km/h 84 % 0 mm
20:28 23.7 °C 20.8 °C 1016.5 hPa SSE 8 km/h 16.1 km/h 84 % 0 mm
20:33 23.6 °C 20.7 °C 1016.5 hPa SE 6.4 km/h 16.1 km/h 84 % 0 mm
20:38 23.5 °C 20.6 °C 1016.5 hPa South 9.7 km/h 17.7 km/h 84 % 0 mm
20:43 23.4 °C 20.5 °C 1016.5 hPa SW 9.7 km/h 17.7 km/h 84 % 0 mm
20:48 23.3 °C 20.6 °C 1016.5 hPa South 9.7 km/h 19.3 km/h 85 % 0 mm
20:53 23.3 °C 20.6 °C 1016.5 hPa South 9.7 km/h 19.3 km/h 85 % 0 mm
20:58 23.2 °C 20.5 °C 1016.5 hPa SSE 8 km/h 19.3 km/h 85 % 0 mm
21:03 23.1 °C 20.6 °C 1016.5 hPa ESE 6.4 km/h 12.9 km/h 86 % 0 mm
21:09 23.1 °C 20.6 °C 1016.5 hPa SSE 4.8 km/h 11.3 km/h 86 % 0 mm
21:13 23 °C 20.5 °C 1016.5 hPa SW 6.4 km/h 12.9 km/h 86 % 0 mm
21:18 22.9 °C 20.4 °C 1016.5 hPa South 8 km/h 12.9 km/h 86 % 0 mm
21:24 22.9 °C 20.6 °C 1016.5 hPa SSE 4.8 km/h 12.9 km/h 87 % 0 mm
21:29 22.9 °C 20.6 °C 1016.5 hPa SSE 9.7 km/h 12.9 km/h 87 % 0 mm
21:34 22.9 °C 20.6 °C 1016.5 hPa SSE 8 km/h 16.1 km/h 87 % 0 mm
21:39 22.8 °C 20.5 °C 1016.8 hPa SSW 8 km/h 16.1 km/h 87 % 0 mm
21:44 22.8 °C 20.5 °C 1016.8 hPa SSW 8 km/h 16.1 km/h 87 % 0 mm
21:49 22.7 °C 20.6 °C 1016.5 hPa South 6.4 km/h 14.5 km/h 88 % 0 mm
21:54 22.7 °C 20.6 °C 1016.5 hPa SE 12.9 km/h 12.9 km/h 88 % 0 mm
21:59 22.6 °C 20.5 °C 1016.8 hPa ESE 9.7 km/h 14.5 km/h 88 % 0 mm
22:04 22.6 °C 20.5 °C 1016.8 hPa South 12.9 km/h 14.5 km/h 88 % 0 mm
22:09 22.6 °C 20.5 °C 1016.8 hPa South 3.2 km/h 17.7 km/h 88 % 0 mm
22:14 22.6 °C 20.5 °C 1016.8 hPa SSW 8 km/h 17.7 km/h 88 % 0 mm
22:19 22.5 °C 20.4 °C 1016.8 hPa South 4.8 km/h 17.7 km/h 88 % 0 mm
22:24 22.4 °C 20.5 °C 1016.8 hPa SE 6.4 km/h 17.7 km/h 89 % 0 mm
22:29 22.4 °C 20.5 °C 1016.8 hPa South 6.4 km/h 17.7 km/h 89 % 0 mm
22:34 22.4 °C 20.5 °C 1016.8 hPa SE 4.8 km/h 12.9 km/h 89 % 0 mm
22:39 22.3 °C 20.4 °C 1016.8 hPa SSE 8 km/h 12.9 km/h 89 % 0 mm
22:44 22.2 °C 20.3 °C 1016.8 hPa SSE 6.4 km/h 12.9 km/h 89 % 0 mm
22:49 22.2 °C 20.3 °C 1016.8 hPa SSW 4.8 km/h 12.9 km/h 89 % 0 mm
22:54 22.2 °C 20.3 °C 1016.8 hPa SSE 8 km/h 12.9 km/h 89 % 0 mm
22:59 22.1 °C 20.4 °C 1016.8 hPa South 6.4 km/h 14.5 km/h 90 % 0 mm
23:04 22.1 °C 20.4 °C 1016.8 hPa SSE 8 km/h 14.5 km/h 90 % 0 mm
23:09 22 °C 20.3 °C 1016.8 hPa SE 4.8 km/h 14.5 km/h 90 % 0 mm
23:14 21.9 °C 20.2 °C 1016.8 hPa SSE 4.8 km/h 11.3 km/h 90 % 0 mm
23:19 21.9 °C 20.2 °C 1016.8 hPa SSE 3.2 km/h 11.3 km/h 90 % 0 mm
23:24 21.8 °C 20.3 °C 1016.8 hPa South 3.2 km/h 9.7 km/h 91 % 0 mm
23:29 21.7 °C 20.2 °C 1016.8 hPa SSW 3.2 km/h 11.3 km/h 91 % 0 mm
23:34 21.7 °C 20.2 °C 1016.8 hPa SSE 8 km/h 11.3 km/h 91 % 0 mm
23:39 21.6 °C 20.2 °C 1016.8 hPa SSE 8 km/h 11.3 km/h 92 % 0 mm
23:44 21.6 °C 20.2 °C 1016.5 hPa SSW 11.3 km/h 11.3 km/h 92 % 0 mm
23:49 21.6 °C 20.2 °C 1016.5 hPa SSE 6.4 km/h 12.9 km/h 92 % 0 mm
23:54 21.6 °C 20.2 °C 1016.8 hPa SSE 6.4 km/h 16.1 km/h 92 % 0 mm
23:59 21.5 °C 20.3 °C 1016.8 hPa SSE 6.4 km/h 16.1 km/h 93 % 0 mm
Spring, Texas: Villages of Bridgestone
Compliments of Weather Underground - 2.75 mb

Script developed by  Jim McMurry - jmcmurry@mwt.net Adapted for the template by  Wim van der Kuil - Leuven-Template.eu

You find our weather info also at:

UK Metoffice

WeatherCloud

Weather Underground

Mid-South Weather Network

AWEKAS

Citizen Weather Observer Program (CWOP)

HAMweather, WeatherForYou, PWS Weather

Equipment we use:

Weather-station
Davis Vantage Vue

Weather-program
Meteohub

Weather-server
Debian 7.9 x86 (Guest)

Provider
DreamHost

Davis Vantage Vue

Meteohub

Debian 7.9 x86 (Guest)

DreamHost